| time (UTC) | temp F | wind direction | speed knots | gust knots | rain 1hr in | rain 24hr in | rain mn in | humidity % | barometer mb |
| 20260906171308 | 80 | 80 | 0.0 | 5.2 | 0.00 | 0.00 | 0.00 | 61 | 1021.8 |
| 20260906170804 | 79 | 146 | 1.7 | 7.0 | 0.00 | 0.00 | 0.00 | 62 | 1021.9 |
| 20260906170300 | 79 | 133 | 5.2 | 7.0 | 0.00 | 0.00 | 0.00 | 63 | 1022.0 |
| 20260906165756 | 79 | 107 | 1.7 | 5.2 | 0.00 | 0.00 | 0.00 | 63 | 1021.9 |
| 20260906165250 | 79 | 235 | 2.6 | 6.1 | 0.00 | 0.00 | 0.00 | 65 | 1021.9 |
| 20260906164750 | 78 | 99 | 2.6 | 7.0 | 0.00 | 0.00 | 0.00 | 64 | 1022.2 |
| 20260906164244 | 79 | 101 | 2.6 | 6.1 | 0.00 | 0.00 | 0.00 | 64 | 1021.9 |
| 20260906163740 | 77 | 101 | 2.6 | 6.1 | 0.00 | 0.00 | 0.00 | 64 | 1021.9 |
| 20260906163237 | 77 | 129 | 0.0 | 6.1 | 0.00 | 0.00 | 0.00 | 67 | 1021.9 |
| 20260906162733 | 78 | 122 | 3.5 | 7.0 | 0.00 | 0.00 | 0.00 | 63 | 1021.9 |
| 20260906162228 | 77 | 356 | 1.7 | 3.5 | 0.00 | 0.00 | 0.00 | 65 | 1022.1 |
| 20260906161722 | 77 | 97 | 3.5 | 6.1 | 0.00 | 0.00 | 0.00 | 65 | 1022.0 |
| 20260906161222 | 76 | 109 | 4.3 | 5.2 | 0.00 | 0.00 | 0.00 | 66 | 1022.0 |
| 20260906160720 | 76 | 131 | 2.6 | 6.1 | 0.00 | 0.00 | 0.00 | 68 | 1022.0 |
| 20260906160220 | 77 | 142 | 2.6 | 4.3 | 0.00 | 0.00 | 0.00 | 68 | 1021.9 |
| 20260906155718 | 76 | 101 | 2.6 | 7.0 | 0.00 | 0.00 | 0.00 | 67 | 1022.0 |
| 20260906155213 | 76 | 118 | 0.9 | 7.0 | 0.00 | 0.00 | 0.00 | 67 | 1021.9 |
| 20260906154708 | 76 | 92 | 1.7 | 5.2 | 0.00 | 0.00 | 0.00 | 67 | 1021.7 |
| 20260906154203 | 76 | 181 | 2.6 | 7.8 | 0.00 | 0.00 | 0.00 | 66 | 1021.8 |
| 20260906153701 | 76 | 111 | 1.7 | 10.4 | 0.00 | 0.00 | 0.00 | 68 | 1021.9 |
| 20260906153156 | 75 | 124 | 4.3 | 6.1 | 0.00 | 0.00 | 0.00 | 68 | 1021.6 |
| 20260906152651 | 75 | 120 | 1.7 | 6.1 | 0.00 | 0.00 | 0.00 | 70 | 1021.7 |
| 20260906152145 | 75 | 150 | 0.9 | 4.3 | 0.00 | 0.00 | 0.00 | 71 | 1021.6 |
| 20260906151640 | 74 | 53 | 1.7 | 4.3 | 0.00 | 0.00 | 0.00 | 71 | 1021.6 |
| 20260906151136 | 74 | 85 | 1.7 | 5.2 | 0.00 | 0.00 | 0.00 | 72 | 1021.6 |
| 20260906150631 | 74 | 129 | 1.7 | 5.2 | 0.00 | 0.00 | 0.00 | 75 | 1021.5 |
| 20260906150126 | 73 | 65 | 0.0 | 4.3 | 0.00 | 0.00 | 0.00 | 76 | 1021.5 |
| 20260906145625 | 74 | 147 | 1.7 | 6.1 | 0.00 | 0.00 | 0.00 | 73 | 1021.5 |
| 20260906145120 | 73 | 15 | 2.6 | 2.6 | 0.00 | 0.00 | 0.00 | 75 | 1021.6 |
| 20260906144614 | 73 | 104 | 1.7 | 6.1 | 0.00 | 0.00 | 0.00 | 74 | 1021.5 |
| 20260906144109 | 73 | 148 | 3.5 | 4.3 | 0.00 | 0.00 | 0.00 | 75 | 1021.6 |
| 20260906143604 | 73 | 122 | 0.9 | 3.5 | 0.00 | 0.00 | 0.00 | 76 | 1021.5 |
| 20260906143101 | 72 | 132 | 0.9 | 6.1 | 0.00 | 0.00 | 0.00 | 76 | 1021.6 |
| 20260906142600 | 73 | 20 | 0.9 | 5.2 | 0.00 | 0.00 | 0.00 | 75 | 1021.4 |
| 20260906142055 | 73 | 131 | 0.9 | 2.6 | 0.00 | 0.00 | 0.00 | 77 | 1021.2 |
| 20260906141554 | 72 | 133 | 2.6 | 4.3 | 0.00 | 0.00 | 0.00 | 76 | 1021.1 |
| 20260906141050 | 71 | 152 | 1.7 | 6.1 | 0.00 | 0.00 | 0.00 | 79 | 1021.2 |
| 20260906140548 | 72 | 108 | 2.6 | 5.2 | 0.00 | 0.00 | 0.00 | 77 | 1021.2 |
| 20260906140043 | 70 | 86 | 1.7 | 5.2 | 0.00 | 0.00 | 0.00 | 79 | 1021.0 |
| 20260906135540 | 70 | 118 | 3.5 | 7.8 | 0.00 | 0.00 | 0.00 | 79 | 1021.0 |
| 20260906135036 | 70 | 81 | 1.7 | 7.8 | 0.00 | 0.00 | 0.00 | 79 | 1021.0 |
| 20260906134531 | 71 | 105 | 1.7 | 5.2 | 0.00 | 0.00 | 0.00 | 77 | 1021.3 |
| 20260906134026 | 72 | 49 | 0.0 | 2.6 | 0.00 | 0.00 | 0.00 | 76 | 1021.3 |
| 20260906133522 | 71 | 24 | 0.0 | 2.6 | 0.00 | 0.00 | 0.00 | 77 | 1021.2 |
| 20260906133017 | 70 | 34 | 0.9 | 2.6 | 0.00 | 0.00 | 0.00 | 79 | 1021.3 |
| 20260906132512 | 69 | 37 | 0.9 | 4.3 | 0.00 | 0.00 | 0.00 | 79 | 1021.4 |
| 20260906132008 | 68 | 102 | 0.9 | 5.2 | 0.00 | 0.00 | 0.00 | 81 | 1021.4 |
| 20260906131503 | 68 | 38 | 0.0 | 2.6 | 0.00 | 0.00 | 0.00 | 85 | 1021.4 |
| 20260906130958 | 66 | 64 | 0.0 | 2.6 | 0.00 | 0.00 | 0.00 | 95 | 1021.5 |
| 20260906130458 | 64 | 141 | 0.9 | 0.9 | 0.00 | 0.00 | 0.00 | 99 | 1021.3 |
| 20260906125952 | 63 | 89 | 0.0 | 0.9 | 0.00 | 0.00 | 0.00 | 99 | 1021.2 |
| 20260906125450 | 62 | 353 | 0.9 | 2.6 | 0.00 | 0.00 | 0.00 | 99 | 1021.2 |
| 20260906124949 | 61 | 13 | 0.0 | 1.7 | 0.00 | 0.00 | 0.00 | 99 | 1021.2 |
| 20260906124445 | 61 | 43 | 0.0 | 1.7 | 0.00 | 0.00 | 0.00 | 99 | 1021.2 |
| 20260906123944 | 61 | 51 | 0.9 | 1.7 | 0.00 | 0.00 | 0.00 | 99 | 1020.9 |
| 20260906123439 | 60 | 37 | 0.0 | 1.7 | 0.00 | 0.00 | 0.00 | 99 | 1020.9 |
| 20260906122939 | 60 | 27 | 0.9 | 1.7 | 0.00 | 0.00 | 0.00 | 99 | 1021.0 |
| 20260906122434 | 60 | 55 | 0.9 | 1.7 | 0.00 | 0.00 | 0.00 | 99 | 1020.9 |
| 20260906121931 | 60 | 38 | 0.0 | 1.7 | 0.00 | 0.00 | 0.00 | 99 | 1021.0 |
| 20260906121427 | 60 | 144 | 0.0 | 1.7 | 0.00 | 0.00 | 0.00 | 99 | 1020.7 |
| 20260906120923 | 60 | 343 | 0.0 | 0.9 | 0.00 | 0.00 | 0.00 | 99 | 1020.9 |
| 20260906120418 | 60 | 19 | 0.0 | 0.9 | 0.00 | 0.00 | 0.00 | 99 | 1020.8 |
| 20260906115914 | 59 | 49 | 0.0 | 1.7 | 0.00 | 0.00 | 0.00 | 99 | 1020.8 |
| 20260906115410 | 59 | 15 | 0.0 | 0.9 | 0.00 | 0.00 | 0.00 | 99 | 1020.8 |
| 20260906114909 | 59 | 89 | 0.0 | 0.9 | 0.00 | 0.00 | 0.00 | 99 | 1020.5 |
| 20260906114404 | 59 | 75 | 0.0 | 0.9 | 0.00 | 0.00 | 0.00 | 99 | 1020.6 |
| 20260906113859 | 59 | 44 | 0.0 | 0.9 | 0.00 | 0.00 | 0.00 | 99 | 1020.6 |
| 20260906113358 | 59 | 329 | 0.0 | 0.9 | 0.00 | 0.00 | 0.00 | 99 | 1020.1 |
| 20260906112854 | 59 | 46 | 0.0 | 1.7 | 0.00 | 0.00 | 0.00 | 99 | 1020.0 |
| 20260906112350 | 59 | 19 | 0.0 | 1.7 | 0.00 | 0.00 | 0.00 | 99 | 1020.1 |
| 20260906111849 | 59 | 16 | 0.0 | 1.7 | 0.00 | 0.00 | 0.00 | 99 | 1020.1 |
| 20260906111343 | 59 | 70 | 1.7 | 1.7 | 0.00 | 0.00 | 0.00 | 99 | 1020.3 |
| 20260906110839 | 59 | 80 | 0.9 | 0.9 | 0.00 | 0.00 | 0.00 | 99 | 1020.3 |
| 20260906110335 | 59 | 44 | 0.0 | 0.0 | 0.00 | 0.00 | 0.00 | 99 | 1020.3 |
| 20260906105833 | 60 | 333 | 0.0 | 0.9 | 0.00 | 0.00 | 0.00 | 99 | 1020.3 |
| 20260906105329 | 60 | 34 | 0.0 | 0.9 | 0.00 | 0.00 | 0.00 | 99 | 1020.1 |
| 20260906104825 | 60 | 15 | 0.0 | 1.7 | 0.00 | 0.00 | 0.00 | 99 | 1020.0 |
| 20260906104323 | 59 | 32 | 0.0 | 0.9 | 0.00 | 0.00 | 0.00 | 99 | 1020.0 |
| 20260906103822 | 60 | 25 | 0.0 | 0.0 | 0.00 | 0.00 | 0.00 | 99 | 1020.4 |
| 20260906103321 | 60 | 32 | 0.0 | 0.9 | 0.00 | 0.00 | 0.00 | 99 | 1020.1 |
| 20260906102817 | 60 | 49 | 0.0 | 0.9 | 0.00 | 0.00 | 0.00 | 99 | 1020.1 |
| 20260906102315 | 60 | 50 | 0.0 | 0.9 | 0.00 | 0.00 | 0.00 | 99 | 1020.0 |
| 20260906101811 | 60 | 135 | 0.0 | 0.9 | 0.00 | 0.00 | 0.00 | 99 | 1019.9 |
| 20260906101306 | 60 | 62 | 0.0 | 0.9 | 0.00 | 0.00 | 0.00 | 99 | 1020.0 |
| 20260906100802 | 60 | 35 | 0.0 | 0.9 | 0.00 | 0.00 | 0.00 | 99 | 1020.0 |
| 20260906100301 | 60 | 27 | 0.0 | 0.9 | 0.00 | 0.00 | 0.00 | 99 | 1019.7 |
| 20260906095756 | 60 | 75 | 0.0 | 0.9 | 0.00 | 0.00 | 0.00 | 99 | 1019.9 |
| 20260906095252 | 60 | 33 | 0.0 | 0.9 | 0.00 | 0.00 | 0.00 | 99 | 1019.9 |
| 20260906094750 | 61 | 117 | 0.0 | 0.9 | 0.00 | 0.00 | 0.00 | 99 | 1020.0 |
| 20260906094246 | 61 | 62 | 0.0 | 0.0 | 0.00 | 0.00 | 0.00 | 99 | 1020.0 |
| 20260906093742 | 61 | 32 | 0.0 | 0.9 | 0.00 | 0.00 | 0.00 | 99 | 1020.0 |
| 20260906093237 | 61 | 35 | 0.0 | 1.7 | 0.00 | 0.00 | 0.00 | 99 | 1019.7 |
| 20260906092733 | 61 | 75 | 0.0 | 0.9 | 0.00 | 0.00 | 0.00 | 99 | 1020.0 |
| 20260906092232 | 61 | 37 | 0.0 | 1.7 | 0.00 | 0.00 | 0.00 | 99 | 1019.9 |
| 20260906091728 | 61 | 69 | 0.0 | 0.9 | 0.00 | 0.00 | 0.00 | 99 | 1020.0 |
| 20260906091224 | 61 | 119 | 0.0 | 0.9 | 0.00 | 0.00 | 0.00 | 99 | 1019.9 |
| 20260906090720 | 62 | 38 | 0.0 | 0.9 | 0.00 | 0.00 | 0.00 | 99 | 1020.0 |
| 20260906090219 | 62 | 55 | 0.0 | 0.0 | 0.00 | 0.00 | 0.00 | 99 | 1019.9 |
| 20260906085718 | 62 | 55 | 0.0 | 0.0 | 0.00 | 0.00 | 0.00 | 99 | 1020.1 |
| 20260906085212 | 62 | 111 | 0.0 | 1.7 | 0.00 | 0.00 | 0.00 | 99 | 1020.1 |
| 20260906084706 | 62 | 50 | 0.0 | 0.0 | 0.00 | 0.00 | 0.00 | 99 | 1020.1 |
| 20260906084201 | 62 | 50 | 0.0 | 0.9 | 0.00 | 0.00 | 0.00 | 99 | 1020.1 |
| 20260906083656 | 62 | 38 | 0.0 | 0.0 | 0.00 | 0.00 | 0.00 | 99 | 1020.0 |
| 20260906083151 | 62 | 38 | 0.0 | 0.0 | 0.00 | 0.00 | 0.00 | 99 | 1020.1 |
| 20260906082646 | 63 | 38 | 0.0 | 0.9 | 0.00 | 0.00 | 0.00 | 99 | 1020.3 |
| 20260906082142 | 63 | 3 | 0.9 | 1.7 | 0.00 | 0.00 | 0.00 | 99 | 1019.9 |
| 20260906081638 | 63 | 15 | 0.0 | 0.9 | 0.00 | 0.00 | 0.00 | 99 | 1019.9 |
| 20260906081132 | 63 | 37 | 0.0 | 0.9 | 0.00 | 0.00 | 0.00 | 99 | 1019.7 |
| 20260906080629 | 63 | 50 | 0.0 | 0.9 | 0.00 | 0.00 | 0.00 | 99 | 1019.9 |
| 20260906080125 | 63 | 66 | 0.0 | 0.9 | 0.00 | 0.00 | 0.00 | 99 | 1019.9 |
| 20260906075624 | 63 | 32 | 0.0 | 0.0 | 0.00 | 0.00 | 0.00 | 99 | 1019.9 |
| 20260906075119 | 63 | 15 | 0.0 | 0.9 | 0.00 | 0.00 | 0.00 | 99 | 1019.7 |
| 20260906074614 | 64 | 37 | 0.0 | 0.0 | 0.00 | 0.00 | 0.00 | 99 | 1019.7 |
| 20260906074113 | 64 | 50 | 0.0 | 0.9 | 0.00 | 0.00 | 0.00 | 99 | 1019.9 |
| 20260906073608 | 64 | 70 | 0.0 | 0.9 | 0.00 | 0.00 | 0.00 | 98 | 1020.1 |
| 20260906073104 | 64 | 15 | 0.0 | 0.9 | 0.00 | 0.00 | 0.00 | 99 | 1019.9 |
| 20260906072558 | 64 | 37 | 0.0 | 0.0 | 0.00 | 0.00 | 0.00 | 98 | 1020.1 |
| 20260906072055 | 64 | 37 | 0.0 | 0.9 | 0.00 | 0.00 | 0.00 | 98 | 1019.9 |
| 20260906071551 | 64 | 6 | 0.0 | 0.9 | 0.00 | 0.00 | 0.00 | 98 | 1019.8 |
| 20260906071045 | 64 | 50 | 0.0 | 0.0 | 0.00 | 0.00 | 0.00 | 97 | 1020.0 |
| 20260906070542 | 65 | 50 | 0.0 | 0.0 | 0.00 | 0.00 | 0.00 | 97 | 1020.0 |
| 20260906070037 | 65 | 50 | 0.0 | 0.0 | 0.00 | 0.00 | 0.00 | 97 | 1019.9 |
| 20260906065537 | 65 | 50 | 0.0 | 0.9 | 0.00 | 0.00 | 0.00 | 97 | 1019.9 |
| 20260906065033 | 65 | 333 | 0.0 | 0.0 | 0.00 | 0.00 | 0.00 | 97 | 1019.9 |
| 20260906064528 | 65 | 75 | 0.0 | 0.0 | 0.00 | 0.00 | 0.00 | 97 | 1020.1 |
| 20260906064023 | 65 | 44 | 0.0 | 0.9 | 0.00 | 0.00 | 0.00 | 97 | 1020.3 |
| 20260906063518 | 65 | 50 | 0.0 | 0.0 | 0.00 | 0.00 | 0.00 | 96 | 1020.3 |
| 20260906063014 | 65 | 55 | 0.0 | 0.0 | 0.00 | 0.00 | 0.00 | 96 | 1020.1 |
| 20260906062509 | 65 | 55 | 0.0 | 0.0 | 0.00 | 0.00 | 0.00 | 96 | 1020.1 |
| 20260906062003 | 65 | 15 | 0.0 | 0.0 | 0.00 | 0.00 | 0.00 | 96 | 1020.1 |
| 20260906061459 | 66 | 31 | 0.0 | 0.9 | 0.00 | 0.00 | 0.00 | 96 | 1020.3 |
| 20260906060953 | 66 | 44 | 0.0 | 0.9 | 0.00 | 0.00 | 0.00 | 96 | 1020.0 |
| 20260906060450 | 66 | 32 | 0.0 | 0.9 | 0.00 | 0.00 | 0.00 | 96 | 1020.4 |
| 20260906055947 | 66 | 16 | 0.9 | 0.9 | 0.00 | 0.00 | 0.00 | 96 | 1020.0 |
| 20260906055442 | 66 | 37 | 0.0 | 0.9 | 0.00 | 0.00 | 0.00 | 96 | 1019.9 |
| 20260906054938 | 66 | 195 | 0.0 | 0.0 | 0.00 | 0.00 | 0.00 | 96 | 1019.9 |
| 20260906054432 | 66 | 50 | 0.0 | 0.0 | 0.00 | 0.00 | 0.00 | 97 | 1019.6 |
| 20260906053928 | 65 | 44 | 0.0 | 0.9 | 0.00 | 0.00 | 0.00 | 96 | 1019.9 |
| 20260906053424 | 65 | 15 | 0.0 | 0.0 | 0.00 | 0.00 | 0.00 | 96 | 1020.1 |
| 20260906052920 | 66 | 13 | 0.0 | 0.0 | 0.00 | 0.00 | 0.00 | 96 | 1019.7 |
| 20260906052416 | 66 | 15 | 0.0 | 0.9 | 0.00 | 0.00 | 0.00 | 96 | 1019.8 |
| 20260906051912 | 66 | 21 | 0.9 | 0.9 | 0.00 | 0.00 | 0.00 | 96 | 1019.6 |
| 20260906051412 | 66 | 30 | 0.0 | 0.9 | 0.00 | 0.00 | 0.00 | 96 | 1019.5 |
| 20260906050908 | 66 | 82 | 0.0 | 0.9 | 0.00 | 0.00 | 0.00 | 96 | 1019.5 |
| 20260906050403 | 66 | 25 | 0.0 | 0.9 | 0.00 | 0.00 | 0.00 | 96 | 1019.6 |
| 20260906045901 | 66 | 92 | 0.0 | 0.9 | 0.00 | 0.00 | 0.00 | 96 | 1019.5 |
| 20260906045355 | 66 | 118 | 0.0 | 1.7 | 0.00 | 0.00 | 0.00 | 96 | 1019.5 |
| 20260906044852 | 66 | 113 | 0.0 | 1.7 | 0.00 | 0.00 | 0.00 | 96 | 1019.4 |
| 20260906044352 | 66 | 230 | 0.0 | 0.9 | 0.00 | 0.00 | 0.00 | 96 | 1019.4 |
| 20260906043847 | 66 | 117 | 0.0 | 1.7 | 0.00 | 0.00 | 0.00 | 96 | 1019.1 |
| 20260906043344 | 66 | 99 | 0.0 | 2.6 | 0.00 | 0.00 | 0.00 | 96 | 1019.2 |
| 20260906042838 | 66 | 129 | 0.0 | 1.7 | 0.00 | 0.00 | 0.00 | 96 | 1019.3 |
| 20260906042337 | 66 | 135 | 0.0 | 1.7 | 0.00 | 0.00 | 0.00 | 96 | 1019.0 |
| 20260906041833 | 66 | 169 | 0.9 | 1.7 | 0.00 | 0.00 | 0.00 | 96 | 1019.2 |
| 20260906041328 | 66 | 131 | 0.0 | 1.7 | 0.00 | 0.00 | 0.00 | 97 | 1019.0 |
| 20260906040828 | 65 | 127 | 0.9 | 0.9 | 0.00 | 0.00 | 0.00 | 97 | 1019.0 |
| 20260906040324 | 65 | 57 | 0.9 | 1.7 | 0.00 | 0.00 | 0.00 | 97 | 1018.9 |
| 20260906035819 | 66 | 0 | 0.0 | 0.9 | 0.00 | 0.00 | 0.00 | 96 | 1018.9 |
| 20260906035314 | 66 | 15 | 0.0 | 0.9 | 0.00 | 0.00 | 0.00 | 96 | 1018.8 |
| 20260906034809 | 66 | 37 | 0.0 | 0.9 | 0.00 | 0.00 | 0.00 | 96 | 1018.7 |
| 20260906034304 | 66 | 154 | 0.0 | 1.7 | 0.00 | 0.00 | 0.00 | 96 | 1018.8 |
| 20260906033800 | 66 | 19 | 0.0 | 0.9 | 0.00 | 0.00 | 0.00 | 95 | 1018.9 |
| 20260906033259 | 66 | 13 | 0.0 | 0.9 | 0.00 | 0.00 | 0.00 | 95 | 1018.8 |
| 20260906032756 | 66 | 37 | 0.0 | 0.9 | 0.00 | 0.00 | 0.00 | 95 | 1018.6 |
| 20260906032256 | 67 | 89 | 0.0 | 1.7 | 0.00 | 0.00 | 0.00 | 94 | 1018.6 |
| 20260906031751 | 67 | 101 | 0.0 | 1.7 | 0.00 | 0.00 | 0.00 | 95 | 1018.6 |
| 20260906031247 | 67 | 89 | 0.0 | 0.9 | 0.00 | 0.00 | 0.00 | 94 | 1018.6 |
| 20260906030746 | 67 | 60 | 0.0 | 0.9 | 0.00 | 0.00 | 0.00 | 94 | 1018.7 |
| 20260906030242 | 67 | 50 | 0.0 | 0.0 | 0.00 | 0.00 | 0.00 | 93 | 1018.6 |
| 20260906025741 | 67 | 50 | 0.0 | 0.9 | 0.00 | 0.00 | 0.00 | 93 | 1018.7 |
| 20260906025235 | 68 | 22 | 0.0 | 0.9 | 0.00 | 0.00 | 0.00 | 92 | 1018.5 |
| 20260906024734 | 68 | 124 | 0.0 | 1.7 | 0.00 | 0.00 | 0.00 | 92 | 1018.7 |
| 20260906024233 | 68 | 119 | 0.0 | 1.7 | 0.00 | 0.00 | 0.00 | 92 | 1018.7 |
| 20260906023729 | 68 | 242 | 0.0 | 0.0 | 0.00 | 0.00 | 0.00 | 91 | 1018.6 |
| 20260906023225 | 68 | 242 | 0.0 | 0.9 | 0.00 | 0.00 | 0.00 | 91 | 1018.8 |
| 20260906022720 | 69 | 173 | 0.0 | 1.7 | 0.00 | 0.00 | 0.00 | 90 | 1018.7 |
| 20260906022215 | 69 | 126 | 0.0 | 2.6 | 0.00 | 0.00 | 0.00 | 90 | 1018.5 |
| 20260906021712 | 69 | 152 | 0.0 | 1.7 | 0.00 | 0.00 | 0.00 | 90 | 1018.4 |
| 20260906021210 | 69 | 66 | 0.0 | 1.7 | 0.00 | 0.00 | 0.00 | 89 | 1018.4 |
| 20260906020705 | 69 | 124 | 0.0 | 2.6 | 0.00 | 0.00 | 0.00 | 89 | 1018.5 |
| 20260906020200 | 69 | 97 | 0.0 | 3.5 | 0.00 | 0.00 | 0.00 | 90 | 1018.5 |
| 20260906015654 | 69 | 75 | 0.0 | 1.7 | 0.00 | 0.00 | 0.00 | 90 | 1018.4 |
| 20260906015152 | 69 | 48 | 0.0 | 1.7 | 0.00 | 0.00 | 0.00 | 90 | 1018.4 |
| 20260906014647 | 70 | 86 | 0.0 | 1.7 | 0.00 | 0.00 | 0.00 | 89 | 1018.2 |
| 20260906014143 | 70 | 65 | 1.7 | 2.6 | 0.00 | 0.00 | 0.00 | 89 | 1018.1 |
| 20260906013639 | 70 | 72 | 1.7 | 1.7 | 0.00 | 0.00 | 0.00 | 89 | 1018.0 |
| 20260906013134 | 70 | 93 | 0.0 | 3.5 | 0.00 | 0.00 | 0.00 | 88 | 1018.2 |
| 20260906012634 | 71 | 46 | 1.7 | 2.6 | 0.00 | 0.00 | 0.00 | 88 | 1018.2 |
| 20260906012129 | 71 | 50 | 0.0 | 0.9 | 0.00 | 0.00 | 0.00 | 88 | 1018.1 |
| 20260906011624 | 71 | 104 | 0.0 | 1.7 | 0.00 | 0.00 | 0.00 | 87 | 1018.1 |
| 20260906011125 | 71 | 50 | 0.0 | 0.9 | 0.00 | 0.00 | 0.00 | 87 | 1018.2 |
| 20260906010620 | 71 | 102 | 0.0 | 1.7 | 0.00 | 0.00 | 0.00 | 86 | 1018.1 |
| 20260906010116 | 72 | 135 | 0.0 | 1.7 | 0.00 | 0.00 | 0.00 | 86 | 1018.1 |
| 20260906005616 | 72 | 129 | 0.0 | 0.9 | 0.00 | 0.00 | 0.00 | 85 | 1018.2 |
| 20260906005115 | 72 | 113 | 0.0 | 1.7 | 0.00 | 0.00 | 0.00 | 85 | 1018.0 |
| 20260906004614 | 72 | 124 | 0.0 | 1.7 | 0.00 | 0.00 | 0.00 | 84 | 1018.1 |
| 20260906004109 | 73 | 89 | 0.0 | 2.6 | 0.00 | 0.00 | 0.00 | 84 | 1018.0 |
| 20260906003604 | 73 | 63 | 0.0 | 2.6 | 0.00 | 0.00 | 0.00 | 83 | 1017.8 |
| 20260906003100 | 73 | 89 | 0.0 | 2.6 | 0.00 | 0.00 | 0.00 | 83 | 1017.7 |
| 20260906002555 | 74 | 122 | 1.7 | 2.6 | 0.00 | 0.00 | 0.00 | 82 | 1017.7 |
| 20260906002049 | 74 | 121 | 2.6 | 4.3 | 0.00 | 0.00 | 0.00 | 82 | 1017.7 |
| 20260906001544 | 74 | 111 | 1.7 | 5.2 | 0.00 | 0.00 | 0.00 | 81 | 1017.8 |
| 20260906001039 | 75 | 138 | 0.0 | 5.2 | 0.00 | 0.00 | 0.00 | 81 | 1017.9 |
| 20260906000535 | 75 | 110 | 1.7 | 3.5 | 0.00 | 0.00 | 0.00 | 79 | 1017.9 |
| 20260906000030 | 76 | 158 | 1.7 | 3.5 | 0.00 | 0.00 | 0.00 | 79 | 1017.8 |
| 20260905235524 | 76 | 147 | 1.7 | 4.3 | 0.00 | 0.00 | 0.00 | 79 | 1018.0 |
| 20260905235019 | 76 | 111 | 0.0 | 3.5 | 0.00 | 0.00 | 0.00 | 78 | 1018.0 |
| 20260905234515 | 76 | 164 | 1.7 | 3.5 | 0.00 | 0.00 | 0.00 | 78 | 1017.9 |
| 20260905234015 | 76 | 172 | 0.0 | 2.6 | 0.00 | 0.00 | 0.00 | 79 | 1017.8 |
| 20260905233509 | 76 | 135 | 3.5 | 5.2 | 0.00 | 0.00 | 0.00 | 79 | 1017.9 |
| 20260905233009 | 76 | 178 | 0.9 | 2.6 | 0.00 | 0.00 | 0.00 | 79 | 1018.1 |
| 20260905232504 | 76 | 122 | 0.9 | 2.6 | 0.00 | 0.00 | 0.00 | 79 | 1018.0 |
| 20260905232000 | 76 | 154 | 0.0 | 3.5 | 0.00 | 0.00 | 0.00 | 79 | 1017.8 |
| 20260905231455 | 76 | 185 | 0.9 | 1.7 | 0.00 | 0.00 | 0.00 | 79 | 1018.1 |
| 20260905230952 | 76 | 147 | 2.6 | 4.3 | 0.00 | 0.00 | 0.00 | 79 | 1017.8 |
| 20260905230450 | 76 | 147 | 1.7 | 4.3 | 0.00 | 0.00 | 0.00 | 78 | 1017.7 |
| 20260905225948 | 76 | 107 | 0.0 | 5.2 | 0.00 | 0.00 | 0.00 | 78 | 1017.9 |
| 20260905225444 | 77 | 89 | 1.7 | 4.3 | 0.00 | 0.00 | 0.00 | 76 | 1017.8 |
| 20260905224939 | 77 | 108 | 0.9 | 3.5 | 0.00 | 0.00 | 0.00 | 75 | 1018.0 |
| 20260905224435 | 80 | 26 | 1.7 | 5.2 | 0.00 | 0.00 | 0.00 | 71 | 1018.0 |
| 20260905223933 | 80 | 98 | 0.0 | 4.3 | 0.00 | 0.00 | 0.00 | 71 | 1018.0 |
| 20260905223432 | 80 | 100 | 0.9 | 9.6 | 0.00 | 0.00 | 0.00 | 70 | 1018.1 |
| 20260905222927 | 82 | 97 | 1.7 | 5.2 | 0.00 | 0.00 | 0.00 | 66 | 1017.9 |
| 20260905222426 | 82 | 44 | 0.0 | 1.7 | 0.00 | 0.00 | 0.00 | 66 | 1018.0 |
| 20260905221922 | 81 | 37 | 0.0 | 2.6 | 0.00 | 0.00 | 0.00 | 69 | 1017.8 |
| 20260905221419 | 79 | 114 | 0.9 | 4.3 | 0.00 | 0.00 | 0.00 | 69 | 1018.0 |
| 20260905220914 | 79 | 313 | 0.0 | 1.7 | 0.00 | 0.00 | 0.00 | 71 | 1018.0 |
| 20260905220410 | 79 | 119 | 1.7 | 3.5 | 0.00 | 0.00 | 0.00 | 70 | 1018.0 |
| 20260905215908 | 80 | 33 | 0.0 | 2.6 | 0.00 | 0.00 | 0.00 | 69 | 1017.9 |
| 20260905215404 | 82 | 135 | 0.9 | 2.6 | 0.00 | 0.00 | 0.00 | 66 | 1018.1 |
| 20260905214901 | 82 | 84 | 0.0 | 1.7 | 0.00 | 0.00 | 0.00 | 67 | 1018.0 |
| 20260905214356 | 81 | 2 | 0.0 | 5.2 | 0.00 | 0.00 | 0.00 | 69 | 1017.9 |
| 20260905213850 | 83 | 122 | 0.0 | 2.6 | 0.00 | 0.00 | 0.00 | 66 | 1018.1 |
| 20260905213348 | 81 | 303 | 0.0 | 3.5 | 0.00 | 0.00 | 0.00 | 66 | 1018.0 |
| 20260905212848 | 81 | 152 | 1.7 | 6.1 | 0.00 | 0.00 | 0.00 | 68 | 1018.1 |
| 20260905212348 | 81 | 138 | 0.0 | 6.1 | 0.00 | 0.00 | 0.00 | 68 | 1018.0 |
| 20260905211841 | 81 | 150 | 2.6 | 4.3 | 0.00 | 0.00 | 0.00 | 69 | 1017.8 |
| 20260905211337 | 80 | 98 | 2.6 | 3.5 | 0.00 | 0.00 | 0.00 | 70 | 1018.1 |
| 20260905210833 | 80 | 162 | 4.3 | 6.1 | 0.00 | 0.00 | 0.00 | 70 | 1017.9 |
| 20260905210328 | 80 | 20 | 0.0 | 6.1 | 0.00 | 0.00 | 0.00 | 70 | 1018.1 |
| 20260905205827 | 82 | 100 | 0.0 | 3.5 | 0.00 | 0.00 | 0.00 | 70 | 1017.8 |
| 20260905205321 | 82 | 134 | 3.5 | 4.3 | 0.00 | 0.00 | 0.00 | 69 | 1018.1 |
| 20260905204821 | 80 | 343 | 0.0 | 4.3 | 0.00 | 0.00 | 0.00 | 72 | 1018.1 |
| 20260905204317 | 81 | 36 | 0.9 | 3.5 | 0.00 | 0.00 | 0.00 | 71 | 1018.2 |
| 20260905203815 | 81 | 88 | 1.7 | 2.6 | 0.00 | 0.00 | 0.00 | 72 | 1018.3 |
| 20260905203312 | 82 | 170 | 2.6 | 4.3 | 0.00 | 0.00 | 0.00 | 68 | 1018.3 |
| 20260905202807 | 83 | 0 | 1.7 | 2.6 | 0.00 | 0.00 | 0.00 | 67 | 1018.1 |
| 20260905202306 | 82 | 62 | 0.0 | 2.6 | 0.00 | 0.00 | 0.00 | 71 | 1018.4 |
| 20260905201758 | 80 | 356 | 0.0 | 3.5 | 0.00 | 0.00 | 0.00 | 73 | 1018.3 |
| 20260905201253 | 79 | 46 | 0.0 | 2.6 | 0.00 | 0.00 | 0.00 | 73 | 1018.3 |
| 20260905200747 | 78 | 44 | 0.9 | 4.3 | 0.00 | 0.00 | 0.00 | 76 | 1018.3 |
| 20260905200244 | 77 | 25 | 0.9 | 6.1 | 0.00 | 0.00 | 0.00 | 78 | 1018.4 |
| 20260905195741 | 78 | 114 | 2.6 | 4.3 | 0.00 | 0.00 | 0.00 | 76 | 1018.3 |
| 20260905195236 | 77 | 165 | 0.0 | 6.1 | 0.00 | 0.00 | 0.00 | 77 | 1018.4 |
| 20260905194732 | 78 | 96 | 2.6 | 6.1 | 0.00 | 0.00 | 0.00 | 75 | 1018.1 |
| 20260905194231 | 79 | 122 | 2.6 | 3.5 | 0.00 | 0.00 | 0.00 | 74 | 1018.4 |
| 20260905193725 | 79 | 85 | 1.7 | 2.6 | 0.00 | 0.00 | 0.00 | 75 | 1018.5 |
| 20260905193220 | 80 | 230 | 3.5 | 6.1 | 0.00 | 0.00 | 0.00 | 73 | 1018.3 |
| 20260905192716 | 78 | 78 | 0.0 | 3.5 | 0.00 | 0.00 | 0.00 | 77 | 1018.3 |
| 20260905192213 | 79 | 142 | 0.0 | 2.6 | 0.00 | 0.00 | 0.00 | 77 | 1018.5 |
| 20260905191711 | 79 | 311 | 0.0 | 3.5 | 0.00 | 0.00 | 0.00 | 75 | 1018.3 |
| 20260905191209 | 79 | 104 | 0.9 | 7.0 | 0.00 | 0.00 | 0.00 | 73 | 1018.5 |
| 20260905190709 | 81 | 177 | 0.0 | 3.5 | 0.00 | 0.00 | 0.00 | 72 | 1018.4 |
| 20260905190208 | 78 | 146 | 0.0 | 2.6 | 0.00 | 0.00 | 0.00 | 77 | 1018.3 |
| 20260905185707 | 78 | 30 | 0.0 | 6.1 | 0.00 | 0.00 | 0.00 | 77 | 1018.4 |
| 20260905185207 | 78 | 121 | 1.7 | 4.3 | 0.00 | 0.00 | 0.00 | 78 | 1018.4 |
| 20260905184701 | 78 | 122 | 2.6 | 5.2 | 0.00 | 0.00 | 0.00 | 77 | 1018.4 |
| 20260905184200 | 77 | 100 | 1.7 | 5.2 | 0.00 | 0.00 | 0.00 | 79 | 1018.4 |
| 20260905183659 | 76 | 77 | 2.6 | 5.2 | 0.00 | 0.00 | 0.00 | 80 | 1018.6 |
| 20260905183154 | 76 | 80 | 1.7 | 5.2 | 0.00 | 0.00 | 0.00 | 79 | 1018.5 |
| 20260905182649 | 77 | 121 | 0.9 | 3.5 | 0.00 | 0.00 | 0.00 | 80 | 1018.4 |
| 20260905182149 | 77 | 8 | 1.7 | 3.5 | 0.00 | 0.00 | 0.00 | 79 | 1018.4 |
| 20260905181644 | 76 | 161 | 2.6 | 6.1 | 0.00 | 0.00 | 0.00 | 80 | 1018.4 |
| 20260905181143 | 76 | 0 | 0.0 | 4.3 | 0.00 | 0.00 | 0.00 | 81 | 1018.3 |
| 20260905180638 | 76 | 99 | 1.7 | 4.3 | 0.00 | 0.00 | 0.00 | 81 | 1018.3 |
| 20260905180133 | 76 | 113 | 0.0 | 4.3 | 0.00 | 0.00 | 0.00 | 81 | 1018.5 |
| 20260905175632 | 76 | 82 | 0.9 | 2.6 | 0.00 | 0.00 | 0.00 | 81 | 1018.3 |
| 20260905175127 | 75 | 100 | 1.7 | 7.0 | 0.00 | 0.00 | 0.00 | 81 | 1018.4 |
| 20260905174623 | 76 | 109 | 4.3 | 6.1 | 0.00 | 0.00 | 0.00 | 79 | 1018.2 |
| 20260905174119 | 76 | 135 | 0.9 | 2.6 | 0.00 | 0.00 | 0.00 | 80 | 1018.5 |
| 20260905173615 | 76 | 25 | 0.0 | 1.7 | 0.00 | 0.00 | 0.00 | 81 | 1018.5 |
| 20260905173110 | 75 | 117 | 0.0 | 1.7 | 0.00 | 0.00 | 0.00 | 81 | 1018.5 |
| 20260905172609 | 75 | 42 | 0.0 | 2.6 | 0.00 | 0.00 | 0.00 | 81 | 1018.7 |
| 20260905172104 | 75 | 89 | 0.0 | 1.7 | 0.00 | 0.00 | 0.00 | 81 | 1018.4 |
| 20260905171601 | 75 | 98 | 1.7 | 4.3 | 0.00 | 0.00 | 0.00 | 82 | 1018.6 |